Retour au catalogue

STARLINK-36327

ActifCommunicationsSSO
NORAD 67738·PAYLOAD·🇺🇸 United States

Lancé Feb 11, 2026 depuis Vandenberg Space Force Base

Loading…

Prochains Passages (prochaines 24 heures)

TLE

FraisSource: CelesTrak SupGP

Époque: Sep 14, 2026, 21:46 UTC

1 67738C 26026T   26257.90743056 -.00008520  00000+0 -26452-3 0  2578
2 67738  97.2854 309.8543 0001081  94.4414 343.4783 15.33441031    14

Suivez STARLINK-36327 en temps réel avec AllMySat

Download on the App Store